Date String (YYYY-MM-DD hh:mm:ss) UTC,Instrument flags,Ambient pressure (hPa),Sample flow (lpm),Bypass flow (lpm),Sample temperature (°C),Ambient temperature (°C),ASC tube jacket temperature (°C),LED temperature (°C),Box temperature (°C),Sample RH (%),Span deviation,Mass concentration (μg/m³),Mass concentration (μg/m³),Mass concentration (μg/m³)
DateTimeUTC,F1_M11,P_M11,Q1_M11,Q2_M11,T1_M11,T2_M11,T3_M11,T4_M11,T5_M11,U1_M11,ZSPAN_M11,X0_M11,X2_M11,X1_M11
2022-01-15 11:00:00,,0835.3,5.01,0.00,21.6,22.0,00.0,30.5,23.3,08.9,0000.0,0005.65,0002.21,0001.80
2022-01-15 11:01:00,,0835.4,5.00,0.00,21.5,21.6,00.0,30.5,23.1,09.0,0000.0,0005.70,0002.15,0001.77
2022-01-15 11:02:00,,0835.3,5.00,0.00,21.4,21.4,00.0,30.5,22.9,09.1,0000.0,0005.63,0002.09,0001.75
2022-01-15 11:03:00,,0835.3,5.00,0.00,21.4,21.1,00.0,30.5,22.8,09.3,0000.0,0005.75,0002.16,0001.77
2022-01-15 11:04:00,,0835.3,5.01,0.00,21.3,20.9,00.0,30.5,22.7,09.3,0000.0,0005.71,0002.21,0001.82
2022-01-15 11:05:00,,0835.3,5.00,0.00,21.2,20.7,00.0,30.4,22.7,09.2,0000.0,0005.77,0002.25,0001.84
2022-01-15 11:06:00,,0835.3,5.00,0.00,21.2,20.6,00.0,30.4,22.6,09.2,0000.0,0005.62,0002.23,0001.86
2022-01-15 11:07:00,,0835.3,5.00,0.00,21.2,21.2,00.0,30.4,22.8,09.1,0000.0,0005.59,0002.23,0001.86
2022-01-15 11:08:00,,0835.3,5.00,0.00,21.4,22.0,00.0,30.5,23.2,09.0,0000.0,0005.67,0002.27,0001.87
2022-01-15 11:09:00,,0835.3,5.01,0.00,21.6,22.8,00.0,30.5,23.5,08.9,0000.0,0005.26,0002.28,0001.85
2022-01-15 11:10:00,,0835.3,5.00,0.00,21.7,22.8,00.0,30.5,23.6,08.9,0000.0,0004.27,0002.28,0001.84
2022-01-15 11:11:00,,0835.3,5.00,0.00,21.7,22.4,00.0,30.6,23.5,09.0,0000.0,0003.62,0002.28,0001.84
2022-01-15 11:12:00,,0835.3,4.99,0.00,21.6,22.0,00.0,30.6,23.3,09.0,0000.0,0003.73,0002.32,0001.84
2022-01-15 11:13:00,,0835.3,5.01,0.00,21.6,21.7,00.0,30.6,23.1,09.1,0000.0,0004.24,0002.38,0001.83
2022-01-15 11:14:00,,0835.3,5.01,0.00,21.5,21.4,00.0,30.5,23.0,09.1,0000.0,0004.18,0002.29,0001.80
2022-01-15 11:15:00,,0835.2,5.00,0.00,21.4,21.1,00.0,30.5,22.9,09.1,0000.0,0004.30,0002.32,0001.80
2022-01-15 11:16:00,,0835.2,5.00,0.00,21.4,20.9,00.0,30.5,22.9,09.2,0000.0,0004.28,0002.32,0001.79
2022-01-15 11:17:00,,0835.3,5.00,0.00,21.3,20.8,00.0,30.5,22.8,09.2,0000.0,0004.27,0002.33,0001.80
2022-01-15 11:18:00,,0835.3,5.02,0.00,21.3,20.7,00.0,30.4,22.8,09.2,0000.0,0004.37,0002.37,0001.79
2022-01-15 11:19:00,,0835.2,5.00,0.00,21.3,20.8,00.0,30.4,22.8,09.2,0000.0,0005.15,0002.37,0001.81
2022-01-15 11:20:00,,0835.3,4.99,0.00,21.4,21.5,00.0,30.4,23.1,09.3,0000.0,0005.70,0002.39,0001.83
2022-01-15 11:21:00,,0835.2,5.01,0.00,21.5,22.5,00.0,30.5,23.4,09.2,0000.0,0005.72,0002.40,0001.84
2022-01-15 11:22:00,,0835.2,4.99,0.00,21.7,22.9,00.0,30.5,23.7,09.1,0000.0,0005.70,0002.39,0001.84
2022-01-15 11:23:00,,0835.3,5.00,0.00,21.8,22.7,00.0,30.6,23.7,09.1,0000.0,0005.36,0002.36,0001.85
2022-01-15 11:24:00,,0835.2,5.01,0.00,21.8,22.4,00.0,30.6,23.7,09.1,0000.0,0004.94,0002.35,0001.87
2022-01-15 11:25:00,,0835.2,4.99,0.00,21.8,22.2,00.0,30.6,23.6,09.1,0000.0,0005.06,0002.43,0001.92
2022-01-15 11:26:00,,0835.3,5.00,0.00,21.8,21.9,00.0,30.6,23.5,09.2,0000.0,0005.26,0002.45,0001.95
2022-01-15 11:27:00,,0835.4,5.00,0.00,21.8,21.7,00.0,30.6,23.4,09.2,0000.0,0005.89,0002.50,0001.99
2022-01-15 11:28:00,,0835.3,5.00,0.00,21.7,21.5,00.0,30.6,23.4,09.2,0000.0,0006.07,0002.57,0002.03
2022-01-15 11:29:00,,0835.3,5.01,0.00,21.7,21.4,00.0,30.6,23.3,09.2,0000.0,0006.11,0002.59,0002.05
2022-01-15 11:30:00,,0835.2,4.99,0.00,21.6,21.2,00.0,30.6,23.2,09.2,0000.0,0005.43,0002.63,0002.07
2022-01-15 11:31:00,,0835.3,5.00,0.00,21.6,21.1,00.0,30.6,23.1,09.1,0000.0,0005.06,0002.69,0002.07
2022-01-15 11:32:00,,0835.2,5.00,0.00,21.5,20.9,00.0,30.6,23.0,09.0,0000.0,0005.82,0002.68,0002.06
2022-01-15 11:33:00,,0835.2,5.01,0.00,21.4,20.8,00.0,30.6,22.9,09.0,0000.0,0007.44,0002.70,0002.05
2022-01-15 11:34:00,,0835.2,4.99,0.00,21.4,21.1,00.0,30.6,23.0,08.9,0000.0,0007.45,0002.71,0002.03
2022-01-15 11:35:00,,0835.2,4.99,0.00,21.6,22.0,00.0,30.6,23.3,08.7,0000.0,0007.34,0002.66,0001.98
2022-01-15 11:36:00,,0835.3,5.01,0.00,21.7,22.8,00.0,30.6,23.7,08.6,0000.0,0007.10,0002.53,0001.90
2022-01-15 11:37:00,,0835.3,5.01,0.00,21.9,23.0,00.0,30.7,23.8,08.5,0000.0,0006.89,0002.42,0001.80
2022-01-15 11:38:00,,0835.2,5.00,0.00,21.9,22.7,00.0,30.7,23.8,08.5,0000.0,0006.13,0002.29,0001.71
2022-01-15 11:39:00,,0835.2,5.01,0.00,21.9,22.3,00.0,30.7,23.6,08.5,0000.0,0005.83,0002.14,0001.62
2022-01-15 11:40:00,,0835.1,5.01,0.00,21.8,22.0,00.0,30.7,23.5,08.5,0000.0,0005.56,0002.01,0001.55
2022-01-15 11:41:00,,0835.2,4.99,0.00,21.8,21.7,00.0,30.7,23.4,08.5,0000.0,0005.34,0001.89,0001.48
2022-01-15 11:42:00,,0835.2,5.01,0.00,21.7,21.5,00.0,30.7,23.2,08.5,0000.0,0005.02,0001.75,0001.42
2022-01-15 11:43:00,,0835.2,4.99,0.00,21.6,21.2,00.0,30.7,23.1,08.6,0000.0,0003.97,0001.69,0001.38
2022-01-15 11:44:00,,0835.2,5.00,0.00,21.5,21.0,00.0,30.7,22.9,08.6,0000.0,0002.36,0001.63,0001.34
2022-01-15 11:45:00,,0835.2,5.01,0.00,21.4,20.8,00.0,30.6,22.8,08.7,0000.0,0002.19,0001.55,0001.31
2022-01-15 11:46:00,,0835.2,5.00,0.00,21.3,20.7,00.0,30.6,22.7,08.7,0000.0,0002.07,0001.48,0001.28
2022-01-15 11:47:00,,0835.2,5.00,0.00,21.4,21.2,00.0,30.6,22.9,08.7,0000.0,0002.06,0001.49,0001.29
2022-01-15 11:48:00,,0835.2,5.00,0.00,21.5,22.0,00.0,30.6,23.3,08.7,0000.0,0002.20,0001.47,0001.30
2022-01-15 11:49:00,,0835.2,5.01,0.00,21.7,22.7,00.0,30.7,23.6,08.6,0000.0,0002.18,0001.46,0001.29
2022-01-15 11:50:00,,0835.3,4.99,0.00,21.8,22.8,00.0,30.7,23.7,08.5,0000.0,0002.20,0001.47,0001.29
2022-01-15 11:51:00,,0835.2,4.99,0.00,21.8,22.4,00.0,30.7,23.6,08.5,0000.0,0002.21,0001.47,0001.30
2022-01-15 11:52:00,,0835.1,5.01,0.00,21.7,22.0,00.0,30.7,23.4,08.5,0000.0,0002.21,0001.46,0001.30
2022-01-15 11:53:00,,0835.1,5.00,0.00,21.6,21.7,00.0,30.7,23.2,08.5,0000.0,0002.24,0001.46,0001.32
2022-01-15 11:54:00,,0835.1,5.00,0.00,21.6,21.4,00.0,30.7,23.1,08.6,0000.0,0002.20,0001.44,0001.31
2022-01-15 11:55:00,,0835.1,5.00,0.00,21.5,21.2,00.0,30.6,23.0,08.6,0000.0,0002.09,0001.41,0001.31
2022-01-15 11:56:00,,0835.1,5.01,0.00,21.4,20.9,00.0,30.6,22.9,08.6,0000.0,0002.11,0001.41,0001.31
2022-01-15 11:57:00,,0835.1,5.00,0.00,21.3,20.7,00.0,30.6,22.7,08.7,0000.0,0002.22,0001.42,0001.31
2022-01-15 11:58:00,,0835.1,4.99,0.00,21.3,21.0,00.0,30.6,22.8,08.7,0000.0,0002.29,0001.42,0001.29
2022-01-15 11:59:00,,0835.1,5.02,0.00,21.4,21.8,00.0,30.6,23.1,08.6,0000.0,0002.04,0001.40,0001.28
